Powrót do katalogu

ARIANE 1 DEB

AktywnyHEO
NORAD 40778·DEBRIS·🇫🇷 France

Wystrzelony Dec 24, 1979 z Guiana Space Centre

Loading…

Następne Przeloty (najbliższe 24 godziny)

TLE

Starzejące sięSource: Space-Track

Epoka: Aug 28, 2026, 13:11 UTC

1 40778U 79104AF  26240.54951310  .00000150  00000-0  30614-3 0  9992
2 40778  18.0202  13.4139 4828834 265.2671  66.1646  5.58150400258549

Śledź ARIANE 1 DEB w czasie rzeczywistym z AllMySat

Download on the App Store